Regional Weather Roundup
Issued by NWS Grand Forks, ND

Home | Current Version | Previous Version | Graphics & Text | Print | Product List | Glossary On
Versions: 1 2 3 4 5 6 7 8 9 10 11 12 13 14 15 16 17 18 19 20 21 22 23 24 25 26 27 28 29 30 31 32 33 34 35 36 37 38 39 40 41 42 43 44 45 46 47 48 49 50
000
ASUS43 KFGF 051010
RWRFGF
PRAIRIE TO PINES  WEATHER ROUNDUP
NATIONAL WEATHER SERVICE EASTERN NORTH DAKOTA/GRAND FORKS ND
500 AM CDT TUE MAY 05 2015

 **SATELLITE DATA USED TO AUGMENT SKY COVER AT AUTOMATED STATIONS**
 *****  WEATHER ACROSS EASTERN NORTH DAKOTA  *****

CITY           SKY/WX    TMP DP  RH WIND       PRES   REMARKS
GRAND FORKS    CLEAR     37  26  64 S6        30.16S
GRAND FRKS AFB CLEAR     38  25  59 S7        30.15F
GRAND FRKS NWS   N/A     43 N/A N/A S7          N/A
DEVILS LAKE    CLOUDY    52  34  50 S12       30.13S
FARGO          CLEAR     49  29  46 SE8       30.17S
WAHPETON ARPT  SUNNY     45  28  53 E6        30.18S
$$

 ***** WEATHER ACROSS CENTRAL AND WESTERN NORTH DAKOTA  *****

CITY           SKY/WX    TMP DP  RH WIND       PRES   REMARKS
BISMARCK       MOCLDY    50  28  42 E9        30.08F
MINOT          CLOUDY    55  27  34 SE12      30.05S
JAMESTOWN      PTCLDY    44  28  53 S7        30.14S
MINOT AFB      CLOUDY    50  35  55 SE9       30.04S
GARRISON         N/A     51  32  48 SE7       30.05F
WILLISTON      CLEAR     50  28  42 S8        29.97F
DICKINSON      CLEAR     42  27  55 SE8       29.99F
HETTINGER      CLOUDY    47  28  47 E9        30.02F
$$

 *****  OTHER AIRPORT OBSERVATIONS IN OUR AREA  *****

CITY           SKY/WX    TMP DP  RH WIND       PRES   REMARKS
WALHALLA       FAIR      52  25  35 S7        30.13S
GRAFTON AIRPOR FAIR      37  25  60 S7        30.16S
VALLEY CITY AR FAIR      46  27  46 S6        30.16S
CANDO          CLOUDY    50  32  50 S9        30.13S
CAVALIER APRT  FAIR      41  27  56 S6        30.14S
GWINNER        SUNNY     45  30  57 SE6       30.18R
SHEYENNE NWR     N/A     40  28  62 SE3       29.95S
ROLLA          NOT AVBL
 ***** THE ABOVE OBSERVATIONS ARE NON NWS ARE NOT QUALITY
       CONTROLLED AND MAY MIS-REPORT RAIN FOR SNOW...
$$

  *****  WEATHER ACROSS NORTHERN MINNESOTA  *****

CITY           SKY/WX    TMP DP  RH WIND       PRES   REMARKS
FLAG ISLAND    CLEAR     50  37  62 S8        30.18S
WARROAD        CLEAR     46  28  49 S7        30.19S
ROSEAU         CLEAR     43  27  52 S7        30.19R
HALLOCK        CLEAR     39  21  48 SE10      30.16S
THF RVR FALLS  CLEAR     43  25  49 SE7       30.19F
BAUDETTE       CLEAR     39  33  79 SE3       30.21S
WASKISH        CLEAR     41  28  60 CALM      30.22S
CROOKSTON      CLEAR     39  28  65 SE9       30.19S
$$
  *****  WEATHER ACROSS CENTRAL AND WEST MINNESOTA  *****

CITY           SKY/WX    TMP DP  RH WIND       PRES   REMARKS
FOSSTON        CLEAR     43  25  49 SE3       30.20F
BEMIDJI        CLEAR     33  27  80 CALM      30.22F
PARK RAPIDS    CLEAR     38  31  76 CALM      30.21F
ELBOW LAKE     FAIR      50  32  49 E8        30.18S
WADENA         CLEAR     36  28  75 E3        30.21S
DETROIT LAKES  CLEAR     45  28  53 CALM      30.21S
MOORHEAD       CLEAR     46  30  53 SE3       30.18S
FERGUS FALLS   CLEAR     46  28  49 E3        30.20S
MORRIS MN      CLEAR     46  27  46 E10       30.17S
STAPLES        CLEAR     34  28  80 CALM      30.21S
$$
  *****  WEATHER ELSEWHERE ACROSS MINNESOTA  *****

CITY           SKY/WX    TMP DP  RH WIND       PRES   REMARKS
DULUTH         CLEAR     38  26  62 E3        30.25S
INTRNTL FALLS  CLEAR     29  25  85 CALM      30.23S
ELY            CLEAR     28  27  93 CALM      30.26S
CLOQUET        CLEAR     30  23  74 CALM      30.24S
WHEATON        CLEAR     37  27  65 SE7       30.19S
BRAINERD       CLEAR     36  33  89 CALM      30.23S
HIBBING        CLEAR     28  23  81 NW3       30.25S
ALEXANDRIA     CLEAR     47  25  42 E8        30.20F
SAINT CLOUD    CLEAR     49  22  34 CALM      30.20S
MINNEAPOLIS    PTCLDY    53  28  38 NE6       30.18S
$$

  *****  WEATHER ACROSS SOUTH DAKOTA  *****

CITY           SKY/WX    TMP DP  RH WIND       PRES   REMARKS
SIOUX FALLS    CLOUDY    45  34  65 N5        30.12S
BROOKINGS      PTCLDY    50  30  46 E9        30.15S
WATERTOWN      CLEAR     53  27  36 SE10      30.16R
HURON          PTCLDY    47  30  51 SE6       30.13R
SISSETON         N/A     39  30  70 CALM      30.17R
ABERDEEN       MOCLDY    50  32  50 CALM      30.14R
MITCHELL       PTCLDY    45  33  63 CALM      30.12S
PIERRE         CLOUDY    53  34  48 SE7       30.08S
MOBRIDGE       CLEAR     50  30  46 SE13      30.06R
RAPID CITY     CLEAR     40  34  79 SE5       30.02F
$$

  *****  SOME WEATHER IN NEARBY STATES *****

CITY           SKY/WX    TMP DP  RH WIND       PRES   REMARKS
GLASGOW MT     CLEAR     45  35  68 E15       29.83F
GREAT FALLS MT PTCLDY    55  35  47 S9        29.76F
CHEYENNE WY    FOG       44  43  96 S8        30.03F VSB 1/4
SCOTTSBLUFF NE CLOUDY    48  44  86 SE9       30.03F
OMAHA NE       CLOUDY    58  57  97 N3        30.04R FOG
DES MOINES IA  LGT RAIN  63  61  93 SE3       30.08S FOG
DAVENPORT IA   LGT RAIN  59  57  93 E15       30.10F FOG
CHICAGO IL     RAIN      49  48  97 NE9       30.19F FOG
EAU CLAIRE WI  MOCLDY    48  39  71 NE8       30.21R
LA CROSSE WI   CLOUDY    58  42  55 E10       30.17R
$$

  *****  SOME NATIONAL WEATHER *****

CITY           SKY/WX    TMP DP  RH WIND       PRES   REMARKS
LA GUARDIA NY  PTCLDY    66  47  50 SW6       30.15S
RALEIGH NC     PTCLDY    57  53  86 SW7       30.33R
ATLANTA GA     CLEAR     62  53  72 SE3       30.30R
NEW ORLEANS LA CLEAR     70  62  76 E5        30.13S
OKLAHOMA CITY  MOCLDY    61  54  77 SE9       30.00S
ALBUQUERQUE NM MOCLDY    50  48  93 SE5       29.94F
SALT LAKE CITY MOCLDY    57  45  64 E7        29.85F
LOS ANGELES CA CLOUDY    58  51  78 CALM      29.99S
BOISE ID       MOCLDY    60  37  42 W7        29.79R
SEATTLE WA     CLOUDY    48  45  89 S9        30.00S
$$

*** WEATHER ACROSS MANITOBA...SASKATCHEWAN AND ONTARIO ***
                ***ONTARIO***

CITY           SKY/WX    TMP DP  RH WIND       PRES   REMARKS
GERALDTON      CLEAR     37  28  70 VRB2      30.23R
THUNDER BAY    CLEAR     30  28  93 W3        30.29R
SIOUX LOOKOUT  PTCLDY    30  30 100 CALM      30.22S
TORONTO        PTCLDY    45  32  61 NW2       30.26R
BIG TROUT LK   CLEAR     27  23  86 W7        30.17R WCI  19
PICKLE LAKE    NOT AVBL
DRYDEN         CLEAR     43  34  70 S9        30.21S
KENORA         CLEAR     45  32  61 S7        30.19S
$$
                *** MANITOBA***

CITY           SKY/WX    TMP DP  RH WIND       PRES   REMARKS
BRANDON        CLEAR     46  30  53 SW9       30.08S
DAUPHIN        CLEAR     39  34  81 NW5       30.04S
ISLAND LAKE    PTCLDY    28  23  80 VRB2      30.20R
PILOT MOUND      N/A     39  27  60 S10         N/A
THE PAS        MOCLDY    37  25  60 E7        30.15S
THOMPSON       PTCLDY    23  18  80 W2        30.19R
WINNIPEG       CLEAR     46  25  42 S12       30.13S
LYNN LAKE      CLEAR     19  16  86 SW7       30.18R WCI  10
CHURCHILL      CLEAR     18  12  79 NW18G30   30.09R WCI   2
GILLAM         CLEAR     27  21  80 W9        30.16R WCI  17
$$
                ***SASKATCHEWAN***

CITY           SKY/WX    TMP DP  RH WIND       PRES   REMARKS
ESTEVAN        CLEAR     48  34  57 SE13      29.99S
KINDERSLEY     PTCLDY    41  37  87 NE14      29.72F
LLOYDMINSTER   CLEAR     39  32  75 E13       29.84F
PRINCE ALBERT  MOCLDY    43  32  65 NE20      29.96F
REGINA         CLOUDY    50  37  62 SE15      29.91F
YORKTON        PTCLDY    41  34  75 E2        29.99S
N. BATTLEFORD  CLEAR     48  30  49 E24G31    29.85S
LA RONGE       MOCLDY    32  23  69 NE7       30.13S
SASKATOON      CLEAR     45  36  70 E10G17    29.85F
SWIFT CURRENT  CLEAR     48  41  76 S17       29.75F
$$
NOTE: THESE ARE AUTOMATED STATIONS WITH LIMITED QUALITY CONTROL
      "FAIR" INDICATES FEW OR NO CLOUDS BELOW 12,000 FEET WITH NO
      SIGNIFICANT WEATHER AND/OR OBSTRUCTIONS TO VISIBILITY.
      SKY/WX - SKY CONDITION AND SIGNIFICANT WEATHER.
      TMP - AIR TEMPERATURE.    DP   - DEWPOINT TEMPERATURE.
      RH  - RELATIVE HUMIDITY.  PRES - PRESSURE.
      HX  - HEAT INDEX.         WCI  - WIND CHILL INDEX.
$



USA.gov is the U.S. government's official web portal to all federal, state and local government web resources and services.